Theta_e
309 309 309 309 309 311 314 315 314 316 319 319 317 317 318 318 321 323 326 330 330 329 330 330 328 328 328 330 331 332 332 333 334 335 335 336 336 336 337 336 329 323 319 316 318 318 316 317 320 322 322 323 323 325 325 324 322 320 328 328 326 330 330 331 328 325 326 321 320 321 321 322 323 322 321 322 322 323 324 324 324 324 326 325 329 331 327 331
310 310 310 309 308 310 313 315 314 315 318 318 316 317 318 318 319 322 324 328 330 330 331 330 329 328 328 328 330 330 331 332 333 333 333 333 335 337 337 336 330 323 320 317 317 318 316 318 321 322 322 323 323 324 325 324 322 322 330 328 326 331 328 324 321 319 320 319 320 321 321 322 322 321 321 321 321 322 324 326 325 327 331 330 332 332 329 330
310 310 311 310 309 309 312 314 314 314 316 318 316 316 317 318 318 320 322 325 329 331 331 331 330 329 328 328 328 329 331 331 330 331 330 330 333 335 336 337 332 323 321 319 317 318 317 319 322 323 323 323 324 324 324 324 323 323 326 329 329 330 326 320 318 318 319 319 319 319 320 321 321 321 321 321 321 320 323 326 326 329 333 334 334 332 330 330
310 310 310 311 309 309 311 313 314 314 315 317 317 315 316 317 318 319 322 324 327 331 331 331 331 330 328 327 327 329 330 328 327 329 326 328 331 332 335 337 332 323 321 319 317 318 318 319 322 323 324 324 325 324 324 324 326 324 324 331 330 325 323 319 317 318 318 319 318 318 319 319 320 321 321 320 321 320 321 323 325 327 329 330 332 332 329 329
309 310 310 311 310 310 311 312 313 314 314 316 317 315 315 316 318 318 320 323 325 330 332 331 331 330 328 328 328 329 328 327 328 327 323 326 329 331 334 337 334 325 321 319 317 318 320 320 322 324 325 325 326 326 325 323 325 325 323 326 325 322 321 318 317 318 318 318 318 317 318 318 319 320 321 320 322 322 320 321 322 322 323 325 328 328 328 327
309 309 310 310 310 310 311 311 312 314 313 315 316 315 314 315 317 318 320 322 324 329 332 331 330 330 329 327 328 329 327 328 328 325 322 324 328 331 332 336 335 327 320 318 316 318 321 321 322 325 326 326 328 329 327 324 324 327 325 323 323 322 320 318 318 319 318 318 318 317 317 318 317 318 319 319 321 321 319 320 321 322 322 322 323 324 325 325
309 309 309 310 310 310 311 312 311 313 313 314 316 315 314 314 316 318 320 321 323 328 332 331 330 330 329 328 329 328 326 327 326 324 322 322 326 331 333 335 336 331 321 317 317 319 321 321 322 325 326 327 328 329 328 324 323 327 328 323 323 324 320 319 319 319 318 318 317 317 317 317 317 318 318 318 319 319 319 319 319 321 323 323 323 322 321 320
309 309 309 309 310 310 310 312 312 312 313 313 315 315 313 314 315 317 321 322 322 327 332 331 331 330 328 329 328 325 324 327 326 325 323 321 324 330 333 334 335 333 323 317 317 319 322 321 322 325 327 327 328 330 329 327 325 325 327 325 323 324 321 319 319 319 319 317 317 317 317 317 317 317 317 317 318 318 318 318 318 321 323 324 324 322 321 320
309 309 309 309 310 310 309 312 313 312 312 312 314 315 313 313 315 316 320 322 322 326 332 331 331 330 328 330 328 324 325 328 327 326 324 324 326 328 333 333 333 333 326 319 318 319 322 321 323 326 328 328 328 330 329 331 330 325 325 325 324 322 319 318 318 319 319 317 317 317 316 317 317 317 317 318 318 318 318 318 318 319 323 324 324 323 322 321
309 309 309 310 310 310 310 310 312 313 312 311 313 314 313 313 315 316 318 322 323 325 329 331 330 330 329 330 327 325 327 328 327 326 324 326 329 329 332 333 333 331 328 322 318 320 323 323 326 327 328 329 330 331 331 333 332 325 324 325 325 321 317 317 318 318 318 317 316 318 317 317 317 316 318 319 319 319 317 318 318 319 322 323 324 324 323 321
309 309 309 310 311 310 310 310 311 313 313 312 313 314 314 314 316 317 317 319 323 325 328 332 330 330 331 329 325 325 328 328 326 325 324 324 329 330 331 332 332 331 329 323 319 322 324 326 328 327 329 330 330 331 332 332 329 324 324 324 324 321 317 316 317 317 317 316 316 316 316 316 316 316 317 319 319 319 317 318 319 318 321 323 325 325 324 321
309 309 309 310 311 311 311 311 311 313 313 313 314 314 314 315 315 316 317 318 323 327 328 330 330 331 331 327 324 325 328 328 326 325 324 323 327 329 330 331 330 328 325 321 320 324 326 327 328 329 329 329 330 333 333 331 329 327 325 324 322 319 319 317 316 317 316 318 317 315 319 319 317 316 316 318 318 318 318 318 319 318 319 323 326 326 323 321
309 309 309 309 311 312 312 312 311 312 313 314 315 315 314 316 316 317 317 317 322 327 328 329 330 330 329 324 324 326 327 327 326 325 324 323 326 328 328 325 322 321 319 319 322 325 326 327 328 328 328 328 329 331 331 327 327 328 324 325 324 320 322 319 316 318 316 318 317 318 325 326 321 317 317 319 319 318 319 318 318 318 318 321 325 326 323 322
309 309 309 309 311 312 312 312 311 311 313 314 315 314 315 316 318 319 319 318 320 325 328 329 329 330 327 324 324 325 325 326 326 325 324 324 325 324 324 320 318 319 319 320 323 325 325 327 328 327 328 328 325 325 330 327 327 329 324 328 331 327 329 324 316 317 317 317 317 320 326 327 325 321 320 321 319 318 318 318 318 317 318 319 321 322 322 322
309 309 309 309 311 312 311 312 312 312 314 316 315 313 314 316 317 318 319 318 319 324 327 328 329 328 325 323 324 324 324 324 325 324 324 324 325 321 320 320 319 320 320 320 322 324 325 327 328 328 328 327 326 329 332 329 327 329 328 331 333 331 334 329 318 317 319 318 317 321 324 325 324 323 323 323 318 317 318 317 318 318 319 319 319 320 321 322
309 308 309 309 311 312 311 311 312 314 315 315 313 312 313 315 316 316 317 317 318 324 327 326 326 325 322 323 324 323 324 325 324 324 323 324 325 321 320 321 321 321 321 321 322 324 325 326 327 327 327 328 331 332 331 329 328 328 331 334 333 332 333 332 324 317 318 318 316 319 323 326 326 322 322 323 318 317 317 317 318 317 319 319 319 319 320 321
309 309 309 310 311 311 310 311 312 314 315 313 311 311 312 314 315 315 316 316 317 322 326 325 324 324 323 323 324 323 323 325 324 324 324 324 325 322 320 320 322 322 322 322 322 323 324 325 326 327 327 328 331 330 329 331 331 328 330 334 334 332 331 332 330 320 316 319 318 319 320 324 327 322 321 322 319 317 316 317 317 317 318 319 319 319 319 321
309 309 310 311 311 310 310 312 313 314 314 311 310 310 311 313 315 315 315 316 316 318 323 325 322 324 324 322 323 323 323 325 324 323 324 324 323 322 320 320 322 322 322 323 323 323 324 322 324 328 328 328 330 330 331 332 329 328 330 332 333 332 331 331 331 324 318 319 320 320 319 320 322 321 321 321 318 317 317 317 318 318 318 318 319 319 319 320
310 310 310 311 310 310 311 312 313 314 313 310 310 310 311 313 314 314 315 315 316 316 321 324 321 324 325 322 323 324 323 324 324 323 323 322 322 322 321 321 322 321 322 323 323 323 323 322 324 328 329 329 329 329 329 328 327 329 329 330 332 332 332 330 330 325 318 319 321 320 320 319 320 320 320 321 319 317 317 317 317 317 317 317 318 319 319 320
310 309 310 311 310 311 312 313 313 314 311 311 313 312 312 313 314 314 315 315 316 316 319 322 321 323 324 322 323 324 323 324 324 324 323 322 322 322 322 322 322 322 322 322 323 322 322 324 325 327 328 328 327 327 327 327 329 332 331 332 332 331 333 330 328 326 320 321 323 321 322 320 320 321 319 320 320 316 316 316 317 317 318 318 319 319 319 320
309 308 309 310 311 311 313 313 313 312 311 312 314 313 313 314 314 315 315 315 315 315 317 320 321 323 323 322 324 324 324 324 324 324 323 322 322 322 323 322 321 322 322 321 322 322 322 325 325 325 325 326 326 326 326 328 330 332 333 334 333 332 332 327 325 326 323 324 327 325 326 324 322 323 321 321 320 317 315 316 317 318 319 320 320 321 321 320
309 309 309 310 311 311 312 312 312 310 311 313 313 313 313 313 313 314 313 315 315 315 316 317 318 320 322 323 324 324 325 325 325 324 323 323 322 322 322 321 321 321 321 321 321 323 324 325 324 323 325 325 325 325 325 326 329 332 333 332 333 332 328 323 321 321 321 325 330 327 325 324 323 324 322 320 320 320 319 319 319 320 320 320 321 322 322 320
309 309 309 310 310 310 310 311 312 311 312 314 313 312 312 312 312 312 313 315 315 315 315 316 316 316 319 323 324 324 325 326 325 324 323 323 322 322 322 321 321 320 320 321 322 324 325 324 323 323 324 324 325 325 325 327 330 333 334 331 332 332 329 326 320 318 319 323 325 323 322 321 320 322 321 318 320 321 322 322 322 322 321 321 322 322 322 320
308 309 309 310 309 309 310 312 312 313 314 314 313 312 312 312 312 312 313 315 316 316 315 316 316 315 317 322 325 324 325 326 325 324 322 322 322 322 322 321 321 321 320 321 322 323 324 323 322 323 324 324 325 325 326 329 332 334 333 332 332 332 330 327 320 318 319 321 320 319 324 326 323 322 321 319 319 319 320 321 321 321 321 321 322 321 322 321
308 309 309 309 309 311 312 312 313 313 314 313 313 312 311 312 313 313 314 316 317 316 314 315 317 316 315 320 325 324 325 326 325 324 321 321 322 321 322 322 322 321 320 321 321 322 322 322 322 323 324 324 326 326 326 329 333 334 333 330 330 331 327 322 321 320 322 326 325 322 329 336 332 327 324 323 323 321 320 318 318 320 320 320 320 320 321 321
309 309 309 309 310 312 312 313 313 313 313 313 312 311 311 312 313 313 315 317 317 316 314 315 318 318 317 321 325 324 326 326 325 324 321 321 322 322 322 322 322 321 320 320 321 322 322 321 322 323 324 325 326 327 326 327 330 333 333 329 329 331 327 323 324 326 329 332 327 322 328 336 333 328 328 327 325 325 323 319 318 319 319 319 320 320 321 321
310 309 310 310 311 312 312 313 313 312 313 313 312 312 311 311 313 313 314 315 316 316 317 317 318 319 320 323 324 324 327 326 324 323 321 321 322 322 323 322 322 322 320 321 324 325 322 322 323 323 325 326 326 327 327 326 329 332 331 329 329 330 328 326 327 330 332 329 324 321 324 330 329 325 326 327 325 325 324 322 320 319 319 320 320 321 321 321
310 310 311 312 312 312 312 313 313 312 312 312 312 312 312 311 312 313 314 315 318 318 319 319 319 320 322 323 323 324 326 324 324 324 321 322 323 322 323 322 322 322 320 322 326 325 322 323 324 323 325 326 325 328 328 326 329 330 328 329 330 330 331 330 329 329 328 327 327 325 322 326 330 326 323 325 326 325 324 323 321 319 319 321 322 322 323 322
309 309 310 311 311 311 311 312 312 312 312 312 312 312 312 312 311 314 315 316 319 318 318 320 320 321 323 324 323 323 324 324 325 324 322 322 322 322 323 322 321 322 321 322 326 325 323 323 323 324 325 325 326 328 329 329 328 324 324 327 328 328 329 330 331 331 329 329 329 326 322 325 331 330 325 325 325 324 323 323 321 318 319 321 322 323 324 323
309 309 309 309 309 308 307 309 311 311 310 312 312 311 312 312 312 315 316 317 319 318 317 321 321 322 324 324 324 323 323 323 323 322 322 322 322 321 322 322 322 323 323 323 324 323 322 323 323 324 325 325 325 325 326 328 324 321 324 326 324 327 330 331 332 332 331 329 327 326 324 325 330 332 327 324 327 327 323 323 323 319 319 321 321 323 324 324
309 308 307 307 307 306 306 308 309 309 308 310 311 311 312 312 312 316 317 317 319 318 318 321 322 324 325 324 325 324 323 323 322 322 321 321 321 321 322 323 323 324 325 324 323 320 321 324 324 324 324 323 325 325 322 321 320 323 327 326 324 327 330 331 329 329 330 328 326 325 324 324 327 332 329 324 326 328 324 324 327 322 319 320 322 322 323 324
309 307 306 306 307 306 307 308 307 308 308 309 310 310 311 311 313 316 316 316 318 318 318 320 322 325 325 324 325 324 324 323 321 321 321 321 322 322 322 323 323 326 326 325 323 321 322 325 323 322 322 322 326 326 322 320 321 324 325 326 328 327 327 328 325 325 328 326 322 321 322 323 324 328 328 323 322 323 320 321 323 322 319 320 322 322 322 323
307 307 306 307 308 307 307 308 307 308 309 309 310 310 310 312 314 316 316 315 316 316 315 317 320 324 325 325 325 324 324 324 322 321 321 322 322 322 323 322 323 326 327 324 323 321 323 324 323 323 322 322 324 325 323 322 322 322 322 325 329 327 326 328 325 324 327 326 321 320 322 323 323 325 326 322 321 320 318 318 320 320 320 320 321 321 321 321
306 306 307 307 307 306 307 307 307 308 310 310 310 310 310 312 314 316 315 314 314 315 315 316 318 322 325 326 325 324 324 324 322 322 322 322 323 323 324 323 322 324 325 324 323 322 324 325 323 323 323 323 323 324 323 322 320 321 323 326 328 326 327 328 325 325 327 324 318 318 323 326 327 329 325 318 317 318 317 319 320 319 319 318 319 319 320 320
306 306 306 305 304 305 306 307 308 310 310 309 309 309 311 313 315 315 314 312 312 313 314 315 317 320 325 326 324 324 324 324 322 322 323 323 323 323 323 323 322 322 324 325 323 322 324 325 322 320 320 322 323 321 320 321 321 322 324 327 327 328 330 329 325 326 326 324 320 319 325 328 326 325 320 314 315 315 314 317 318 319 318 317 317 318 318 318
306 305 305 303 303 305 306 307 309 310 309 307 308 310 311 313 313 314 313 311 311 313 314 316 315 317 324 326 325 324 323 323 323 323 323 323 323 323 323 322 322 321 323 324 323 323 324 324 321 318 318 321 322 320 318 321 324 323 323 326 325 325 330 329 324 321 321 324 324 321 324 326 323 321 319 318 321 319 315 315 314 317 318 316 317 317 316 317
305 304 303 303 303 305 306 307 308 309 308 306 309 310 309 309 309 311 314 313 312 313 315 317 315 315 322 325 325 325 324 323 324 324 324 324 323 323 322 322 321 321 322 322 322 322 324 323 320 319 320 319 318 319 319 319 321 323 323 323 321 323 327 328 325 321 319 323 325 321 322 324 323 324 323 322 323 323 320 317 312 313 316 315 316 317 317 317
304 303 303 303 303 304 306 307 308 308 307 306 309 310 308 307 306 307 311 312 313 314 315 318 315 313 318 322 323 324 323 323 324 324 324 324 324 323 322 322 321 320 320 320 321 321 323 323 320 320 321 318 317 320 322 320 317 320 322 320 322 326 325 325 326 324 322 323 326 324 322 323 324 324 324 321 322 323 321 319 316 313 313 314 316 317 316 317
303 304 305 304 303 303 304 306 307 307 305 306 309 309 307 306 304 304 306 310 314 315 316 317 314 312 315 317 320 323 323 324 324 325 325 324 324 323 321 322 322 320 319 319 321 320 321 323 320 319 319 320 320 321 323 322 317 317 319 319 324 326 324 324 324 325 325 323 326 327 324 326 325 322 324 323 322 323 321 320 319 314 312 315 316 317 316 317
304 305 305 304 303 303 303 304 305 306 305 307 309 308 306 305 304 303 304 309 313 315 316 315 314 313 314 314 316 318 322 324 324 325 325 324 323 323 321 321 321 320 319 319 321 320 319 322 321 317 317 320 322 322 322 322 318 318 320 320 322 322 321 324 323 325 328 325 327 327 322 329 332 323 320 322 322 323 322 322 320 313 312 316 316 316 317 317
305 305 305 303 303 303 303 304 305 305 305 307 307 306 305 305 304 303 303 307 311 312 313 314 314 314 313 314 314 314 318 324 325 325 325 324 324 323 322 321 321 320 320 320 321 320 319 321 320 317 317 320 322 320 320 321 320 319 321 321 321 319 320 324 323 324 325 323 329 329 322 331 338 324 317 319 320 321 319 319 318 312 312 316 316 316 317 316
304 305 304 303 303 303 303 304 304 305 306 306 306 306 305 304 305 304 303 306 309 310 310 312 312 311 311 312 313 311 313 320 324 324 325 323 323 323 322 320 320 320 320 321 319 318 319 320 318 317 318 318 319 318 317 320 319 318 319 322 322 319 319 323 323 323 322 320 324 325 321 328 334 325 319 318 317 316 314 314 314 313 314 315 316 316 316 316
304 304 304 304 303 303 304 304 304 305 306 305 305 305 304 304 304 304 304 305 308 309 309 310 311 311 309 309 311 311 311 317 322 323 324 323 322 322 321 320 320 320 320 321 320 318 318 319 317 317 316 316 317 317 316 317 319 318 319 321 322 320 319 322 324 324 323 322 321 321 321 326 332 327 318 312 312 313 314 314 313 314 315 315 315 315 315 315
303 304 304 304 303 303 304 305 305 305 305 305 305 305 304 304 304 305 305 305 305 307 308 309 310 310 308 307 309 311 311 315 321 322 322 324 322 321 321 320 320 321 320 321 320 319 320 319 317 317 318 317 319 319 317 317 318 319 319 319 320 320 319 323 323 321 322 324 323 323 323 323 328 328 319 314 316 316 313 313 314 315 316 315 315 315 314 314
303 303 303 303 303 303 304 304 304 305 305 305 305 305 304 304 303 304 305 304 304 305 307 308 309 308 307 307 309 309 308 312 318 318 319 323 322 320 320 320 320 320 320 320 318 319 322 319 317 319 320 321 322 321 320 318 317 319 319 318 319 320 320 321 321 319 321 322 320 322 322 319 320 321 319 319 321 318 313 312 313 315 315 315 314 313 313 313
302 303 302 302 302 303 303 302 303 305 305 305 306 305 305 305 304 303 304 304 304 304 305 306 307 308 308 309 310 311 308 308 311 313 315 319 321 321 320 320 320 319 320 319 317 320 322 319 317 319 320 321 322 321 320 319 318 319 320 319 318 319 319 320 321 321 321 320 319 320 321 319 318 319 319 320 320 320 317 312 311 314 314 314 313 312 313 313
302 303 302 302 302 302 302 301 302 304 305 305 306 305 305 305 305 303 304 304 304 304 305 305 306 308 309 310 312 312 310 309 310 312 312 313 316 321 320 320 321 319 319 319 317 319 322 319 318 319 319 319 320 320 319 319 319 319 319 319 318 318 319 320 321 321 321 321 321 320 319 319 318 317 320 322 320 321 317 311 310 313 314 313 313 312 312 312
302 302 301 302 302 302 302 302 302 304 305 305 305 306 306 305 305 305 304 304 304 304 306 306 306 307 308 309 311 312 311 311 312 312 312 312 314 320 322 321 321 319 318 319 319 319 320 320 319 319 319 319 320 320 319 319 319 318 318 319 319 318 319 319 319 320 321 321 321 320 319 319 317 316 318 319 316 316 314 311 311 312 313 313 313 312 312 312
301 301 301 301 301 301 301 302 302 303 305 305 305 305 306 306 306 306 305 305 305 305 306 307 307 307 306 307 309 312 312 314 314 312 311 312 312 316 322 323 321 320 319 320 320 319 320 321 319 318 320 320 319 320 319 319 319 319 318 318 318 318 318 318 319 319 319 320 320 319 320 319 318 317 317 315 313 313 311 311 312 312 312 313 313 312 312 312
301 302 302 300 300 300 300 301 303 304 304 305 305 304 305 306 306 306 305 305 306 306 306 307 308 306 306 306 307 310 309 310 313 311 309 312 311 310 315 316 315 319 322 320 319 319 320 322 320 319 320 320 319 319 319 319 319 319 318 318 318 318 318 318 318 318 319 319 319 319 320 319 317 317 316 314 314 314 312 311 312 313 313 312 312 312 312 313
301 302 301 301 301 301 301 302 303 304 304 304 305 304 305 305 306 306 306 305 306 307 305 306 307 306 306 306 307 308 306 305 307 307 306 309 309 306 308 308 308 316 322 320 319 319 321 322 320 319 321 320 319 319 319 318 319 320 319 318 318 318 318 318 318 318 319 319 319 319 320 318 317 317 316 313 314 313 311 311 312 313 314 313 312 313 312 313
301 301 300 301 302 301 301 302 303 303 303 303 304 304 305 305 306 306 306 305 305 306 305 305 307 307 307 308 307 307 306 304 305 305 303 304 304 303 304 304 304 309 315 318 319 319 320 322 320 319 321 321 319 318 318 318 320 320 318 318 318 318 318 318 318 318 318 318 319 319 319 318 319 319 318 316 316 314 311 311 312 313 314 313 313 313 313 312
Wind_Speed
37 37 37 40 42 42 41 39 39 40 36 36 37 36 36 36 39 41 39 40 42 40 36 35 32 27 27 26 27 26 24 27 28 30 32 31 31 31 31 30 26 24 22 22 20 18 18 16 14 12 10 10 7 5 5 5 6 5 3 3 3 3 3 4 2 2 5 4 5 9 8 6 5 6 10 8 9 13 9 9 9 7 7 5 6 10 15 20
36 37 37 39 42 43 42 40 40 41 38 37 37 36 35 35 38 41 39 38 40 42 38 35 33 30 28 27 27 25 24 27 28 32 32 29 31 32 31 32 29 24 23 23 22 22 21 19 16 12 11 10 7 8 7 6 7 4 3 3 4 3 3 3 1 4 5 6 8 9 7 6 8 10 11 5 7 13 9 8 9 10 11 10 12 14 16 19
36 37 38 38 41 43 43 41 39 41 40 39 38 36 35 34 36 40 40 37 37 42 40 35 34 33 29 28 27 24 25 26 28 34 32 28 30 30 31 32 32 27 24 24 23 22 21 19 16 13 13 10 9 10 8 6 5 5 4 2 5 3 3 5 4 8 9 12 10 8 7 8 8 11 10 6 7 10 9 9 10 13 17 16 18 18 18 19
36 37 39 38 40 43 44 43 40 42 42 40 39 37 35 33 35 39 41 39 36 38 42 38 36 34 31 29 26 25 25 20 27 36 31 29 30 28 31 33 33 28 25 25 23 21 19 18 16 14 15 10 10 12 10 9 6 5 6 4 4 1 3 3 4 7 12 13 11 8 7 7 6 8 9 7 5 4 11 16 13 14 20 21 22 21 20 20
36 37 39 39 39 41 43 44 41 42 43 41 39 37 36 33 34 38 40 41 38 37 42 41 38 36 33 30 27 27 23 10 20 37 32 28 31 30 31 33 33 30 25 24 24 22 18 18 17 15 14 9 9 9 9 15 11 4 6 9 8 1 3 2 1 4 8 10 10 9 6 5 6 7 7 7 5 4 10 17 17 16 18 19 21 22 21 21
35 36 39 40 40 42 42 43 43 42 43 43 39 38 37 34 35 37 39 41 39 39 41 42 40 37 34 31 29 30 28 8 5 25 35 30 29 31 31 32 34 32 27 25 25 23 20 21 19 17 14 7 8 7 8 17 15 5 5 11 13 5 4 5 3 1 3 7 8 7 5 7 6 3 6 8 7 5 4 6 12 17 17 16 18 21 22 21
35 35 39 41 42 44 42 42 44 43 43 44 40 37 37 36 36 38 40 41 41 42 44 45 43 41 37 33 31 34 37 22 1 8 27 31 29 30 32 31 34 35 31 28 27 25 23 24 20 19 13 5 8 8 10 17 17 9 4 8 13 10 7 7 5 3 2 4 5 6 6 6 5 3 4 9 11 9 5 4 3 10 18 19 19 19 19 19
35 35 37 41 43 44 44 42 43 45 44 44 41 37 38 37 36 38 40 41 43 44 46 47 44 44 40 36 37 33 36 38 19 6 12 27 30 29 32 32 33 36 36 30 28 27 25 25 23 19 12 6 8 8 12 14 12 10 5 7 10 10 10 10 8 6 4 3 3 5 5 5 5 4 5 9 11 10 10 8 4 6 17 23 20 18 18 18
34 35 36 40 43 44 46 44 43 44 45 45 42 37 38 38 37 39 40 41 44 44 45 46 44 45 41 41 40 27 35 41 28 17 11 21 31 30 33 34 32 36 39 34 29 26 24 24 23 19 11 8 8 7 12 11 6 11 11 10 8 6 11 12 9 8 6 5 4 4 4 7 8 5 7 14 14 12 11 10 9 8 16 22 21 19 18 19
34 35 36 38 42 44 46 46 44 43 45 45 43 39 38 39 38 37 39 41 43 45 45 44 44 45 43 46 36 19 37 38 23 25 19 18 29 32 33 33 33 36 39 37 31 27 25 21 20 21 13 4 6 8 12 10 5 10 13 13 12 9 13 12 10 9 7 6 7 6 5 9 9 6 6 12 13 15 16 13 12 12 16 20 21 20 18 19
34 35 37 38 41 43 45 47 45 43 45 44 42 40 39 40 39 37 40 40 42 45 44 45 47 48 47 48 35 18 36 37 23 28 25 19 26 32 35 33 33 37 39 40 34 29 28 22 18 21 12 3 4 5 9 11 8 8 12 11 12 10 11 12 10 10 9 5 9 8 4 7 7 6 9 11 9 12 19 18 16 16 16 20 21 21 20 20
34 35 37 39 41 42 44 46 46 43 44 44 41 40 39 39 39 38 39 39 42 45 45 46 50 55 50 44 39 28 31 36 27 27 29 23 20 26 32 32 32 35 38 41 37 32 30 24 20 18 9 5 4 1 4 10 10 8 7 5 6 7 6 11 11 11 11 6 9 7 3 6 6 8 13 15 11 10 18 20 19 18 17 20 22 21 22 21
35 35 36 39 41 42 44 45 46 43 43 44 41 41 39 38 37 35 38 39 41 45 45 43 44 51 46 34 39 35 25 32 31 27 31 26 18 24 31 33 34 34 37 42 40 35 32 26 22 15 8 6 5 3 2 5 8 7 4 3 4 3 4 9 11 11 11 7 12 9 2 7 8 13 20 21 19 15 18 22 21 20 19 21 24 23 23 22
35 35 36 39 41 43 44 44 45 45 44 45 42 42 40 38 35 34 37 38 40 43 42 42 41 45 41 30 37 38 25 28 33 31 33 28 24 29 32 35 35 32 35 39 36 33 32 27 21 13 7 4 2 3 1 2 4 5 3 2 3 3 4 8 12 12 8 8 16 11 4 8 5 13 22 24 25 22 21 23 22 21 20 21 24 25 25 24
35 35 36 40 42 43 45 45 46 47 46 45 44 43 43 42 39 37 37 36 39 40 38 44 49 47 36 24 30 36 29 30 36 35 34 32 32 34 33 34 32 31 31 33 33 29 31 27 16 8 5 2 4 4 0 2 1 3 3 2 2 4 4 5 12 17 10 7 15 12 3 8 6 13 21 18 20 25 24 23 23 22 22 22 23 25 26 26
35 35 36 39 43 44 46 46 45 46 45 44 44 42 42 44 42 39 37 36 37 36 36 43 53 50 28 13 23 34 34 36 39 37 35 34 36 37 35 32 29 29 27 27 29 26 28 24 11 4 3 2 3 3 1 2 2 3 4 4 4 5 3 4 7 18 17 7 9 10 4 5 5 12 20 16 17 25 26 24 25 25 24 25 24 26 28 27
34 35 36 39 43 44 45 46 44 43 41 41 42 39 39 40 41 38 33 36 37 34 36 42 53 46 19 11 23 36 38 39 41 38 36 35 36 41 40 34 28 25 24 23 24 22 24 20 9 3 2 3 4 2 3 5 5 4 3 2 4 5 5 2 3 10 16 10 7 10 7 8 6 6 9 12 16 23 25 25 27 26 26 27 26 26 28 29
34 35 37 40 44 44 45 46 44 41 38 38 39 36 36 35 36 34 29 33 36 32 31 39 47 28 10 18 28 39 42 38 41 40 38 38 37 42 42 37 31 26 23 18 17 20 18 13 6 2 1 3 5 5 6 5 6 6 5 4 5 4 6 6 4 6 12 9 8 10 9 12 11 8 9 10 16 22 25 26 26 25 26 27 27 28 29 30
34 35 39 44 46 47 48 48 45 40 36 34 33 33 34 33 31 30 29 31 31 24 13 22 36 11 7 32 37 41 43 38 40 40 40 42 38 39 37 34 34 31 24 14 11 18 15 8 5 4 6 7 8 9 8 4 6 9 9 8 7 4 5 6 5 8 14 9 8 11 10 12 11 10 12 14 17 22 24 25 24 24 25 25 26 28 30 31
34 36 41 46 48 49 50 49 44 40 36 33 35 35 31 27 20 18 28 33 32 32 16 14 34 18 12 39 43 40 41 37 40 42 43 45 42 38 32 30 31 25 18 11 10 17 17 8 6 11 11 12 12 12 11 5 4 9 8 7 6 5 4 5 5 8 14 10 9 12 10 11 13 9 12 19 20 20 21 22 24 26 26 27 27 28 30 32
34 36 41 44 47 49 49 47 44 41 37 36 42 39 31 28 17 12 27 27 28 44 35 22 33 24 12 38 49 46 45 39 42 47 45 46 46 35 28 29 22 12 12 14 13 14 15 10 12 15 13 14 14 11 11 9 5 7 8 5 5 5 5 4 4 7 11 8 7 9 8 11 12 9 12 18 16 17 22 22 24 28 29 31 31 31 32 33
37 37 40 43 45 46 45 44 42 41 39 40 44 39 35 40 31 22 27 19 23 43 41 31 29 23 16 37 53 54 47 33 34 45 46 47 45 32 26 25 15 9 12 14 12 9 10 11 13 14 12 12 12 11 12 12 8 5 6 5 4 5 2 3 3 0 5 6 4 3 7 10 10 9 12 15 15 18 27 30 30 32 32 33 34 34 34 34
40 40 42 43 44 44 42 41 40 41 43 43 46 42 36 41 38 28 23 14 16 30 35 35 31 25 20 29 47 52 42 28 28 40 49 48 43 37 31 21 12 13 13 12 12 10 9 9 12 14 13 13 11 13 14 11 7 4 4 4 4 4 4 3 3 2 1 3 1 1 4 6 6 8 10 16 20 21 27 33 35 36 35 35 36 35 35 34
40 43 44 43 44 43 41 41 40 44 48 46 46 45 35 32 33 30 20 6 2 12 25 34 31 29 29 27 44 51 41 37 37 42 51 49 40 33 27 20 15 13 14 17 16 12 6 6 15 16 12 14 13 13 14 9 6 6 5 5 4 4 5 3 2 1 3 3 1 3 5 6 6 9 10 13 19 21 24 27 30 35 36 36 35 35 35 35
39 43 43 43 43 43 42 41 44 47 48 45 41 41 36 26 26 32 21 3 2 5 13 25 26 30 34 32 43 48 37 35 42 48 53 50 43 28 19 21 17 11 15 18 15 9 6 12 20 16 11 14 13 13 15 11 7 7 7 8 7 3 4 5 6 5 3 4 3 3 2 6 4 8 10 7 8 13 17 19 24 30 31 31 33 34 36 36
39 40 41 43 43 44 42 39 45 47 42 42 40 38 38 29 26 32 19 3 4 5 6 18 21 22 31 34 41 44 27 21 37 52 51 48 47 34 19 16 12 12 17 15 9 4 5 15 19 15 14 15 11 11 14 12 8 6 6 9 7 4 7 8 7 4 2 4 4 3 4 6 5 5 7 6 5 8 11 13 20 27 28 29 33 35 37 38
37 37 39 44 45 46 44 37 42 45 37 37 40 38 39 34 28 28 16 1 5 7 9 16 17 17 26 34 44 35 14 18 30 41 48 45 43 36 22 13 9 12 16 11 6 5 9 17 17 15 15 12 10 10 11 12 8 4 5 10 8 6 8 8 7 4 3 2 4 1 3 4 7 5 5 6 7 9 11 11 14 23 30 33 36 38 39 41
35 35 36 42 47 49 44 37 43 45 37 36 40 38 36 34 32 24 11 4 5 8 8 13 16 21 27 37 46 28 21 36 25 25 47 46 38 32 17 15 15 14 17 14 8 8 13 16 16 17 14 10 10 7 9 12 7 4 4 8 8 6 7 6 6 3 0 2 4 3 3 2 6 6 4 4 7 12 15 13 12 19 28 33 37 40 41 42
37 40 39 39 43 45 38 33 40 40 34 37 39 35 33 35 31 16 3 5 3 4 5 14 18 23 26 30 34 24 29 36 20 26 48 42 37 29 15 21 21 15 18 16 8 7 12 19 20 16 11 10 8 6 9 12 6 4 5 6 5 4 5 5 5 3 3 2 6 5 4 3 6 6 4 3 6 12 14 10 9 17 26 32 36 40 40 40
42 41 40 38 38 40 33 28 34 32 30 35 36 36 40 35 21 9 7 5 2 2 6 15 16 20 24 19 16 20 23 19 20 34 34 24 27 21 18 26 19 12 13 8 6 5 9 20 20 12 11 11 9 8 9 11 9 7 7 8 7 5 5 4 3 5 2 5 6 8 7 4 5 6 5 5 6 10 10 7 7 14 23 30 33 37 39 39
46 40 38 38 37 37 34 30 31 31 28 31 33 37 37 22 7 7 10 2 3 3 5 9 12 18 25 18 10 17 18 11 22 29 15 12 14 9 15 18 7 9 10 4 5 3 6 14 11 9 16 15 12 8 4 7 13 10 6 6 5 3 4 4 3 3 3 6 3 8 10 7 7 7 5 8 9 8 7 7 7 10 19 27 30 32 35 35
41 39 36 37 36 35 34 32 32 32 30 31 34 34 22 7 3 6 4 3 2 5 4 4 10 17 26 23 14 18 17 11 19 22 15 14 12 9 14 13 8 10 9 8 8 4 6 10 7 8 15 18 14 6 2 4 9 8 6 8 6 1 1 1 1 1 5 5 2 5 7 5 9 6 6 13 12 10 10 11 12 15 18 21 24 28 31 33
36 37 37 37 36 33 30 30 33 33 33 37 37 24 8 3 6 4 3 2 1 2 3 3 5 13 26 24 15 18 17 14 21 21 18 18 14 15 17 16 18 13 8 14 11 7 5 4 7 9 10 18 18 9 6 6 8 10 9 9 8 4 3 5 3 1 5 5 2 4 4 3 7 4 11 20 19 16 16 18 19 19 16 13 14 19 24 28
37 37 37 35 31 28 26 27 32 34 39 42 30 13 5 5 4 4 4 3 2 2 2 4 3 8 23 23 14 17 14 12 22 21 18 18 14 14 13 13 20 12 8 13 8 9 9 3 9 12 7 16 19 12 9 7 6 7 6 7 7 5 5 6 4 3 4 4 3 2 3 5 4 3 10 18 21 18 17 20 20 16 12 7 8 10 14 18
38 37 36 31 25 23 23 27 32 38 43 36 16 5 7 6 3 5 5 3 3 3 1 5 4 3 16 19 14 19 13 10 23 20 15 17 14 15 15 14 20 13 10 12 5 9 12 4 8 9 6 16 16 8 10 10 5 3 3 6 6 6 5 3 4 5 4 1 2 3 4 4 5 6 9 11 16 14 14 19 19 18 15 11 12 12 13 15
40 37 33 28 24 21 23 27 31 38 38 22 6 4 5 2 1 4 5 4 5 7 5 6 4 2 10 13 13 20 12 8 23 19 12 17 15 17 17 14 21 20 15 14 7 8 11 6 7 7 4 13 17 13 13 14 8 2 5 8 4 4 6 2 3 0 4 2 3 3 5 5 3 8 10 10 12 11 10 12 16 20 20 17 18 18 17 17
40 35 30 26 24 23 25 26 28 35 30 12 3 3 1 1 1 2 3 5 6 8 8 6 4 2 6 7 11 20 12 8 19 16 11 15 13 17 18 13 19 22 18 16 7 5 8 3 4 7 4 7 15 19 14 11 9 5 7 8 4 4 3 2 2 1 2 3 4 4 7 5 3 6 6 8 12 12 9 7 10 15 17 19 22 22 21 21
38 32 27 25 23 24 27 25 26 31 21 6 3 3 2 0 2 4 2 2 4 6 5 5 3 1 3 2 7 17 15 11 16 13 12 12 9 16 20 14 17 20 18 18 8 4 9 5 3 4 6 5 9 13 8 3 4 6 7 8 6 3 4 4 3 3 4 4 4 4 5 5 6 6 2 6 12 12 10 7 7 8 13 19 25 26 24 22
38 27 20 22 24 23 24 23 25 24 11 2 3 2 1 1 1 4 6 3 3 5 5 4 2 0 2 2 4 12 14 14 16 13 12 10 8 17 21 14 15 19 19 17 10 6 9 7 1 3 3 7 6 7 9 7 1 4 6 7 5 3 4 5 4 3 4 4 5 4 3 4 7 7 6 8 11 11 11 10 7 9 16 23 28 28 26 22
35 19 11 23 27 22 23 23 21 15 4 1 3 1 1 1 2 5 7 3 2 2 3 4 3 2 2 1 0 4 8 13 17 14 11 12 12 16 22 17 14 18 18 13 10 8 6 5 5 1 0 6 8 7 12 15 8 6 10 10 7 4 2 2 3 3 4 4 4 4 5 6 6 5 11 13 12 12 13 11 9 12 20 27 30 29 26 23
29 12 9 27 27 22 26 20 11 6 2 1 2 2 2 2 0 4 8 5 3 3 2 4 4 3 3 2 1 1 3 8 15 12 8 14 14 12 20 23 18 19 17 10 8 9 5 4 8 7 4 9 11 6 8 14 13 10 9 9 10 7 4 4 5 4 4 4 4 5 6 7 5 4 9 13 10 9 12 11 9 14 22 26 27 27 25 22
21 8 13 29 28 26 25 11 2 3 1 2 4 4 3 2 2 2 7 5 5 3 4 4 3 2 2 2 3 3 1 3 11 12 7 14 17 12 22 33 28 25 19 11 12 10 5 5 8 7 5 6 5 1 0 7 11 7 4 6 7 6 6 8 8 6 5 4 2 3 4 7 6 4 5 8 9 10 14 14 12 16 21 23 23 22 21 18
18 13 20 31 29 27 18 4 2 4 1 3 6 5 4 2 2 2 4 5 3 2 3 3 2 2 1 1 3 3 2 2 7 11 8 14 17 13 24 36 32 25 17 10 11 9 5 5 7 5 3 2 3 4 5 2 5 5 3 5 8 10 11 8 5 5 6 7 4 3 6 8 6 3 2 3 5 10 15 18 17 15 16 18 19 19 18 16
23 21 21 30 33 25 10 1 4 5 2 4 5 4 4 3 2 1 2 3 2 2 3 2 1 2 2 2 3 3 1 1 4 7 6 10 13 11 24 37 31 21 16 13 14 11 6 6 9 8 5 1 2 1 2 1 4 7 10 11 13 16 14 7 3 3 4 7 8 6 8 7 4 4 3 5 2 4 7 13 16 14 15 18 19 19 17 16
20 15 14 24 29 18 4 1 4 4 4 5 4 5 5 4 2 2 2 2 2 2 2 2 3 4 4 4 4 3 2 1 1 2 3 4 7 7 20 36 31 20 18 18 20 15 7 7 10 12 12 10 10 12 11 10 10 9 12 16 17 19 19 12 6 5 6 6 8 8 11 6 3 4 4 6 4 1 3 6 11 14 18 20 19 18 17 16
11 6 7 11 15 9 1 1 3 4 4 4 4 4 4 3 3 2 2 2 2 2 3 3 3 4 4 4 4 3 2 1 1 2 4 2 2 2 19 34 30 24 22 21 24 15 3 5 12 12 14 14 12 9 7 9 11 10 13 19 18 16 17 13 7 9 10 5 4 8 11 8 7 7 5 5 4 5 4 4 9 13 16 18 17 16 16 17
7 4 5 5 5 5 1 2 2 4 4 4 3 3 4 4 4 2 2 1 1 1 2 2 1 2 3 4 4 3 3 2 2 1 2 2 5 2 20 29 25 28 24 20 26 16 3 7 15 14 15 14 8 8 10 11 14 14 15 18 17 14 13 13 12 13 10 5 7 12 13 15 15 9 7 9 7 5 5 7 13 15 15 16 16 16 17 18
6 6 7 7 4 2 2 0 1 4 5 4 3 4 6 5 5 3 1 1 1 1 1 2 2 4 5 3 2 4 5 3 2 1 1 1 5 3 14 18 19 29 22 13 18 13 3 10 15 14 16 12 9 13 14 14 15 15 17 18 19 18 16 17 19 18 13 10 13 19 19 21 19 12 11 11 7 7 11 14 15 15 15 17 18 19 19 19
9 10 8 7 4 4 7 6 4 5 6 4 2 3 6 5 5 3 1 2 3 0 1 2 3 4 5 4 2 3 5 3 3 3 1 1 3 3 7 9 12 22 18 10 11 7 3 10 12 12 13 10 10 14 16 17 15 15 18 19 20 21 21 22 22 22 19 15 18 23 22 22 20 14 11 11 11 14 16 14 12 14 18 21 21 22 22 22
10 10 8 7 5 7 9 7 5 6 5 3 2 2 4 5 5 3 1 2 3 1 0 3 5 5 4 3 4 3 3 3 3 3 3 4 2 4 1 3 2 9 12 9 7 4 5 9 11 11 10 8 10 13 15 18 18 17 19 20 19 20 20 21 20 20 18 18 23 24 20 20 17 10 9 13 17 17 12 11 15 18 21 22 23 24 26 26
12 14 17 13 5 4 7 3 3 5 4 3 3 3 3 4 5 4 2 1 4 4 3 4 5 4 3 4 3 3 3 4 6 6 4 5 5 2 1 3 5 2 8 9 6 3 5 6 8 9 8 7 11 14 15 16 17 17 17 19 20 19 19 21 22 21 19 19 21 20 18 18 10 5 8 12 16 16 14 17 21 22 23 25 27 29 30 30
16 18 19 15 6 3 6 3 2 4 3 2 2 2 3 5 6 5 3 2 4 6 6 6 6 3 3 3 1 1 3 3 4 7 7 7 7 5 3 2 4 2 3 6 6 5 7 7 7 9 10 10 12 13 12 11 10 12 15 21 25 25 24 22 20 21 19 16 16 16 18 15 6 7 10 10 11 13 17 22 26 26 28 30 30 32 33 31
Wind_Direction
242 239 236 233 232 230 230 230 229 232 232 232 231 228 231 229 224 224 222 216 213 217 217 215 213 208 210 211 208 206 207 213 216 217 219 214 208 207 202 201 202 197 198 200 200 197 190 194 192 187 201 208 214 208 187 196 184 154 131 163 227 238 231 247 258 195 151 148 176 169 165 151 143 143 129 119 130 133 134 133 130 146 146 143 154 157 170 180
242 240 237 233 232 230 230 230 227 229 232 232 230 227 229 228 225 224 223 220 214 214 216 215 214 211 210 212 211 205 208 217 219 221 221 214 210 209 201 200 202 197 196 196 198 198 191 192 184 179 202 210 213 201 192 192 181 177 134 161 216 207 250 294 133 134 126 150 163 157 157 148 161 166 152 151 151 143 130 122 135 135 132 144 159 165 173 180
242 240 238 233 231 230 230 231 228 227 231 232 229 227 227 228 226 225 224 223 218 214 213 215 215 214 211 213 211 202 209 217 221 224 221 217 214 209 202 200 201 197 194 194 195 199 197 193 181 182 200 203 203 193 191 192 191 199 157 166 231 224 325 348 84 123 136 152 144 136 142 129 150 164 159 176 169 158 157 153 151 149 151 158 167 174 178 185
243 240 238 235 230 229 230 230 229 226 228 231 230 226 226 226 226 225 224 224 222 215 211 213 215 214 212 213 210 202 206 215 227 225 217 217 216 207 202 201 200 197 192 190 190 194 198 194 186 190 200 207 205 192 188 188 190 192 169 190 224 154 32 2 46 106 134 144 139 133 132 120 135 159 166 164 149 199 202 192 194 180 174 173 175 182 185 190
243 241 238 236 230 228 229 230 229 225 226 230 230 226 223 223 224 222 223 223 222 217 210 210 213 213 211 212 210 201 195 209 240 229 218 214 213 207 201 200 200 197 191 187 185 186 189 191 192 197 203 211 198 190 197 191 184 188 205 219 224 131 89 205 53 91 126 135 140 132 121 135 140 156 178 170 156 220 211 207 220 210 193 185 184 188 190 195
244 241 237 236 230 225 227 229 229 226 225 228 229 226 221 221 222 219 220 221 221 218 211 209 211 211 209 210 209 199 191 190 272 227 220 213 209 206 199 197 199 198 192 185 182 183 186 193 197 196 198 212 204 197 196 190 188 200 237 228 233 225 145 196 207 113 129 132 138 131 131 154 146 167 205 208 202 189 185 215 224 218 213 200 190 192 193 200
244 241 238 236 231 226 225 227 229 227 225 227 228 225 221 221 220 218 217 219 220 218 214 210 209 209 207 205 205 198 199 206 153 216 218 212 208 204 198 198 197 198 194 185 182 184 188 197 204 196 188 207 216 212 195 189 190 198 241 225 232 236 186 193 214 204 183 132 126 140 149 159 158 189 214 224 222 212 231 275 243 209 209 201 192 195 200 205
243 242 240 235 231 227 224 224 227 227 226 225 227 226 222 220 220 217 214 217 219 219 214 208 205 207 204 201 197 194 205 211 210 223 212 203 206 203 198 200 199 198 195 185 182 187 192 202 207 197 187 200 210 216 196 188 192 196 215 214 228 243 204 193 201 199 201 158 139 163 181 200 198 210 224 228 222 214 232 255 259 185 194 200 198 201 204 208
244 242 240 235 230 227 225 223 224 225 226 225 225 226 222 219 220 217 213 215 217 219 214 205 203 205 204 204 195 196 214 209 208 225 210 190 198 202 200 200 199 198 196 188 184 194 199 204 208 195 185 205 218 226 201 193 205 198 198 209 223 222 187 185 187 193 212 207 201 205 224 237 229 233 247 238 225 217 228 240 235 197 189 199 203 206 208 211
245 241 239 235 228 227 224 223 224 222 223 225 225 225 220 217 218 215 213 214 216 219 216 207 204 202 203 204 192 202 218 203 196 214 210 193 191 196 200 199 196 194 196 189 187 203 201 198 200 189 185 213 229 233 217 206 193 189 196 210 222 200 176 180 186 192 205 213 215 208 226 248 233 213 241 242 230 226 229 223 216 207 198 201 206 211 214 217
245 240 239 233 227 226 222 221 223 221 221 222 222 221 217 215 215 213 214 216 216 217 218 213 207 203 201 199 191 203 215 199 190 202 204 204 193 192 197 197 193 192 193 186 188 202 196 190 180 175 186 226 215 231 230 210 180 183 199 214 225 207 182 179 181 188 190 205 213 202 241 261 230 213 230 231 230 229 222 214 204 205 206 207 210 213 218 221
244 240 237 232 225 224 221 220 220 218 218 218 219 218 214 214 213 213 215 218 216 212 215 212 204 202 197 196 199 202 206 197 190 196 201 206 198 194 195 193 192 189 187 182 186 196 190 184 172 164 175 176 165 150 235 216 201 202 197 197 216 207 200 189 181 183 184 200 198 178 321 268 225 222 227 225 228 223 214 211 204 205 209 210 213 216 220 223
242 239 235 229 223 220 218 218 217 217 217 216 218 216 213 211 210 214 218 218 216 211 213 210 201 198 191 194 206 197 194 195 190 194 200 202 193 188 188 184 185 186 186 185 184 188 187 183 177 169 149 142 148 139 235 229 198 199 170 131 166 190 250 205 188 183 185 199 180 158 305 252 229 228 227 230 227 209 203 207 209 212 212 209 212 218 222 224
240 237 233 227 222 218 215 214 214 215 216 216 214 213 211 206 206 213 216 218 217 210 212 215 211 203 192 199 207 192 183 189 190 195 194 191 181 178 185 184 183 186 190 190 184 182 186 182 177 175 147 113 57 101 246 292 168 162 133 113 149 180 260 218 188 172 173 199 174 155 251 247 251 237 233 238 228 210 201 206 211 216 215 211 211 216 223 224
239 236 230 225 219 215 212 210 210 211 213 213 211 210 207 205 206 210 214 218 218 213 210 210 205 195 189 204 206 191 184 183 187 194 191 185 176 170 178 184 185 188 190 193 189 184 185 180 169 167 157 113 29 58 118 291 182 144 147 201 212 190 256 249 198 180 178 196 171 154 246 257 266 243 240 246 227 212 210 211 211 218 222 220 217 216 221 225
236 232 228 223 215 211 210 208 208 208 209 209 209 209 209 209 209 210 216 219 217 211 203 198 189 182 179 195 197 186 182 184 186 189 188 186 179 170 170 175 180 186 187 191 191 185 182 179 167 169 179 137 84 60 154 201 206 192 162 183 211 201 232 285 225 195 179 157 177 186 228 261 270 250 244 245 223 209 211 218 218 223 229 227 225 220 220 223
232 228 225 218 209 207 206 204 205 205 205 206 205 208 210 211 212 212 215 219 218 206 197 194 184 182 183 168 179 180 178 182 183 179 179 184 181 174 172 171 170 177 180 184 190 188 183 181 177 196 193 119 118 125 200 198 189 192 167 184 220 208 196 219 262 201 170 147 193 214 231 239 252 286 257 233 218 208 209 219 223 225 229 230 231 227 223 222
228 224 218 211 205 203 201 200 201 202 202 202 203 205 208 211 215 214 211 213 213 203 202 198 185 180 184 176 175 175 174 176 177 174 173 177 177 175 175 172 166 165 162 161 181 183 177 172 160 153 164 160 163 172 199 197 173 171 171 199 230 209 191 200 226 181 163 167 198 206 234 244 248 276 271 236 211 208 211 218 223 225 228 231 232 230 227 225
225 220 213 205 201 200 199 200 201 201 198 198 199 199 201 205 208 211 208 202 197 195 210 198 187 180 144 177 178 174 175 172 170 172 171 170 171 170 170 168 166 161 150 144 173 172 159 141 142 188 204 197 191 189 197 192 168 175 181 199 204 197 209 213 221 182 166 179 212 207 223 243 249 254 255 245 219 212 218 222 225 227 228 230 231 232 230 228
222 216 209 203 198 197 199 200 200 199 195 192 189 185 186 185 189 203 200 199 199 198 215 203 189 192 149 166 171 168 171 171 168 169 170 170 166 162 159 160 159 159 157 153 166 168 160 156 194 204 203 199 199 192 197 219 190 180 192 210 200 194 230 221 223 199 171 175 221 217 220 239 246 247 243 241 231 222 224 224 228 229 228 230 232 235 234 233
217 208 203 202 198 198 199 198 198 197 193 191 186 181 182 179 178 186 182 196 212 204 216 222 195 206 189 166 170 169 166 169 172 171 171 170 165 158 158 160 157 166 174 149 136 154 166 192 210 202 197 197 201 189 193 232 237 191 199 212 207 201 231 238 223 203 175 179 235 228 229 242 245 250 244 238 229 225 226 224 229 231 231 233 234 237 239 239
210 203 199 198 196 197 198 196 197 195 193 192 188 186 192 194 195 196 183 189 215 208 216 226 218 238 222 174 176 175 166 165 170 170 169 168 165 163 164 167 169 173 162 141 131 150 184 214 203 187 186 185 194 186 192 227 235 214 209 196 215 205 208 294 300 237 168 191 255 249 237 249 253 256 249 240 228 226 229 228 231 233 233 234 235 238 239 239
204 200 199 197 196 197 198 198 197 193 189 189 191 193 198 201 202 203 192 183 205 209 214 223 231 245 230 186 175 171 164 162 166 168 170 168 168 170 168 169 175 161 155 160 166 174 198 210 177 168 174 171 179 186 192 221 229 223 212 185 225 204 181 248 284 327 137 182 211 339 282 266 257 263 258 246 241 237 235 235 236 236 235 236 237 238 237 235
201 199 199 197 197 197 197 198 194 189 188 189 194 197 197 201 201 196 186 163 206 208 212 220 224 228 229 201 174 169 167 169 170 170 172 170 167 170 170 168 167 159 170 177 174 184 192 152 155 163 174 172 174 185 189 202 216 223 219 203 224 201 188 198 169 120 8 349 17 47 321 282 234 246 256 248 244 243 240 238 238 237 236 238 239 238 236 235
199 198 198 196 196 197 195 193 190 186 186 188 192 194 194 194 190 187 180 108 326 211 208 212 215 224 226 207 182 173 168 173 174 171 172 172 166 163 167 172 171 166 176 175 171 190 184 148 158 167 179 179 178 186 190 189 197 223 223 211 212 182 148 142 127 103 43 311 283 103 292 283 252 242 253 255 247 246 244 239 239 239 237 237 238 237 236 236
198 197 196 195 195 194 189 183 184 185 185 188 192 193 195 190 178 183 179 47 260 198 169 192 200 218 219 207 184 170 166 178 177 171 172 175 171 162 160 171 177 175 169 165 169 193 175 161 164 173 179 182 189 191 190 184 182 219 213 194 195 133 120 142 140 130 157 245 262 144 192 269 298 263 254 256 256 256 250 242 241 242 241 239 238 238 237 236
193 194 193 195 195 188 180 176 181 185 183 188 194 195 196 192 182 182 179 302 236 162 137 174 184 199 206 193 176 168 161 157 167 174 172 172 170 165 164 169 175 175 158 151 185 186 164 169 171 177 179 185 196 193 187 179 175 226 200 174 178 134 137 160 149 166 205 237 303 344 150 261 284 259 240 238 252 266 255 246 241 237 237 239 239 240 239 239
185 181 180 185 190 186 179 175 179 182 184 188 191 191 193 192 186 180 179 238 191 131 137 165 175 193 197 184 177 172 146 148 158 180 172 169 169 166 168 175 170 166 160 163 189 170 159 174 176 173 179 193 194 180 172 172 180 234 193 169 180 153 144 151 134 158 32 39 274 259 139 232 268 269 274 237 244 264 255 244 238 233 233 235 237 239 240 240
181 173 171 173 176 179 179 174 174 176 179 181 182 180 177 178 179 170 190 240 162 94 151 161 170 184 184 182 183 171 152 157 162 169 170 169 170 169 174 178 168 157 170 175 174 155 162 180 177 166 179 197 186 169 170 177 196 203 138 101 96 91 93 103 116 115 53 316 235 204 168 225 262 267 266 227 230 253 257 247 234 235 237 237 236 237 239 239
179 173 173 172 169 174 181 179 179 179 170 168 170 165 161 163 168 171 204 211 125 82 161 161 164 166 169 182 189 167 159 162 152 158 168 165 161 162 160 169 165 147 168 169 146 156 160 172 174 172 190 183 165 185 191 180 165 127 100 82 68 48 50 53 53 80 73 266 224 178 181 208 264 263 233 210 219 234 246 253 244 238 239 241 239 238 238 238
176 175 174 177 176 178 181 180 188 191 179 169 165 158 155 155 161 194 196 158 63 165 173 165 160 156 169 182 183 166 163 152 149 154 159 147 146 134 139 160 168 146 158 135 146 167 139 162 174 187 189 168 155 190 206 163 152 124 99 111 96 27 20 25 14 61 208 246 216 179 178 183 232 254 239 231 230 229 235 235 240 240 236 238 238 237 237 237
170 171 172 176 178 180 183 182 186 189 184 179 171 159 153 153 205 197 180 58 74 182 184 176 166 164 174 181 179 169 158 148 157 158 157 156 156 159 162 171 171 156 162 158 164 170 151 172 176 171 181 169 162 174 93 142 159 134 130 141 134 106 41 193 232 185 227 244 247 181 161 191 235 242 258 257 245 229 231 229 234 239 239 241 238 236 236 235
166 164 167 174 176 178 183 183 181 179 175 172 168 160 149 200 194 168 137 153 149 160 169 174 174 172 175 180 181 169 157 154 163 162 165 164 160 174 181 178 172 171 169 162 165 163 163 213 182 165 178 174 171 170 160 180 175 157 156 161 162 146 154 206 212 237 249 262 262 161 141 239 262 243 235 248 249 234 231 237 240 241 243 248 242 234 233 232
164 162 167 172 173 174 179 180 180 177 168 162 161 158 180 203 177 126 143 180 122 87 147 170 190 187 179 180 178 166 160 161 164 163 167 166 164 178 182 179 181 178 148 160 171 167 170 234 186 176 174 174 178 178 163 145 151 166 148 143 165 166 174 196 188 198 229 267 273 186 163 200 211 232 227 239 257 258 246 241 241 243 240 223 209 207 209 217
162 165 166 164 165 169 172 171 172 171 163 157 154 164 188 194 173 160 166 156 134 112 81 166 178 217 185 181 178 174 173 161 162 164 172 172 171 177 174 177 185 177 149 164 172 167 179 209 183 175 162 171 176 161 129 118 136 205 120 136 189 181 148 146 185 188 169 186 255 207 229 212 200 272 273 260 272 275 253 236 232 239 238 211 196 193 189 196
160 163 160 155 156 161 166 166 166 165 158 148 144 176 188 204 186 186 168 147 158 148 128 159 168 252 194 181 177 181 185 164 162 163 173 177 178 181 177 176 182 179 168 168 162 170 181 183 173 159 152 180 173 155 153 156 158 180 163 175 194 140 117 125 233 163 103 198 247 193 242 289 310 279 268 255 267 271 249 231 223 228 229 217 208 206 204 206
158 157 153 148 148 156 168 169 167 167 159 145 177 175 110 345 316 304 156 149 160 147 142 168 168 184 197 186 179 177 170 161 168 164 168 175 180 182 179 180 185 184 176 169 169 183 164 135 191 167 145 190 165 151 164 169 142 138 183 179 118 76 99 131 215 343 108 226 266 213 231 271 289 269 259 233 245 255 250 233 224 223 218 213 214 216 218 221
154 149 145 144 146 156 169 172 169 167 156 139 206 176 85 53 310 330 354 134 152 140 150 175 156 164 200 195 188 176 162 162 174 168 164 172 175 176 176 181 189 190 179 165 156 169 147 104 311 211 152 151 140 137 156 200 154 150 166 158 134 159 199 166 179 208 192 229 278 259 241 233 222 232 247 226 229 242 253 239 223 220 208 211 219 222 223 225
148 140 135 146 148 154 168 176 170 161 143 125 195 183 131 103 303 321 340 320 180 148 157 163 116 174 207 182 192 184 173 172 174 168 168 175 171 174 178 179 185 190 182 166 156 166 158 137 215 263 170 150 147 153 173 195 239 100 138 163 167 176 187 178 175 163 172 215 257 285 280 238 228 208 195 221 222 223 241 238 220 211 206 211 220 222 222 224
143 130 133 156 153 152 163 168 164 155 142 182 154 114 109 109 266 311 345 347 170 133 162 167 141 149 175 153 202 204 192 180 175 173 175 176 167 172 182 179 175 183 180 166 158 158 154 145 152 167 45 162 176 195 186 182 176 159 172 185 184 168 135 164 187 148 139 179 215 256 264 254 249 197 194 215 216 207 218 226 223 213 209 216 223 225 224 227
138 116 141 159 157 154 153 152 155 154 148 168 128 106 138 116 195 323 347 17 71 42 86 128 140 137 137 152 60 352 230 194 183 179 174 178 173 173 184 180 169 172 173 160 161 165 158 159 154 151 176 185 188 203 195 186 183 181 188 186 180 176 138 158 211 202 166 180 179 196 251 266 255 211 204 214 216 210 209 211 220 218 214 219 226 228 230 230
128 100 152 160 159 154 146 134 128 147 123 151 126 114 134 107 67 337 335 9 61 48 55 83 117 107 94 138 87 59 357 218 194 189 174 182 187 183 182 180 172 170 172 166 170 167 120 116 140 145 170 182 187 249 311 183 177 169 187 182 171 170 160 181 212 203 188 218 178 158 262 277 258 239 235 226 218 215 209 203 212 223 221 221 224 225 225 220
111 107 148 159 157 152 146 117 125 142 102 126 108 98 126 106 59 12 340 5 39 44 61 81 131 116 89 145 104 95 47 326 214 203 185 185 195 188 176 176 170 168 173 170 168 159 90 102 129 113 97 45 20 357 8 65 151 153 189 179 169 190 194 192 200 171 187 220 202 200 255 264 267 274 286 262 213 205 208 206 208 219 218 213 211 207 202 198
110 111 138 156 159 158 156 128 152 153 148 133 118 117 120 82 77 119 11 16 20 53 109 124 115 108 127 130 109 108 103 337 245 223 207 194 195 177 170 173 171 171 181 177 171 174 160 151 142 129 140 102 48 290 319 327 188 188 198 194 188 195 193 185 169 151 214 221 185 194 238 242 278 321 8 11 40 171 198 204 204 204 197 192 189 186 186 189
113 105 125 153 163 169 168 110 155 152 146 138 124 130 121 76 81 113 73 59 37 47 109 99 81 104 122 122 106 92 100 73 280 304 319 218 190 153 168 177 175 178 190 176 165 169 164 159 160 157 169 176 178 192 196 193 195 193 194 195 195 195 190 190 193 191 228 218 165 195 235 240 309 318 325 345 348 205 204 197 196 198 194 189 185 183 186 192
120 109 118 147 164 175 179 40 135 137 146 138 117 125 123 107 118 98 64 76 51 36 63 62 73 95 113 127 116 107 106 68 109 9 352 268 231 145 171 179 180 182 185 166 153 152 118 167 182 182 185 187 185 182 155 154 175 184 187 191 196 197 191 188 197 209 216 206 171 221 243 246 241 240 259 284 259 230 236 208 199 201 196 192 189 190 194 201
119 123 134 136 144 157 141 355 105 130 152 143 125 139 130 126 143 111 25 63 166 36 61 64 74 94 131 151 125 127 141 84 115 131 344 280 307 270 175 179 183 182 178 158 153 152 111 184 188 192 197 197 170 128 118 146 177 184 183 189 193 190 184 190 209 218 207 196 234 237 236 242 239 218 224 248 236 228 251 230 214 208 200 199 198 199 205 209
109 118 136 130 109 128 130 218 172 136 147 142 109 142 142 133 143 137 105 138 144 265 51 69 75 79 93 112 95 139 146 104 116 140 358 265 317 301 177 179 188 181 171 158 166 163 143 187 189 190 196 192 151 143 157 173 185 186 184 189 190 184 184 197 212 219 206 201 234 234 227 238 241 217 210 225 212 213 233 229 221 214 208 208 207 207 213 215
100 108 127 125 107 131 141 161 160 126 146 150 86 141 148 136 136 122 103 125 106 287 271 81 109 105 79 58 47 130 145 132 162 173 130 128 350 323 172 171 198 188 170 160 181 180 175 185 181 181 191 188 161 161 172 176 180 189 192 192 191 188 192 200 210 218 214 213 234 238 235 241 243 227 216 218 214 228 239 234 226 223 219 217 214 215 219 220
110 125 142 124 104 130 140 151 140 126 153 147 99 180 149 128 138 116 79 141 118 116 225 80 110 124 96 71 61 78 93 59 85 132 154 138 54 341 151 97 282 201 173 166 182 201 203 182 163 166 185 193 177 174 177 175 180 190 194 194 192 192 199 207 214 218 215 219 232 239 244 250 247 227 207 212 216 229 240 225 218 224 226 223 220 221 225 224
120 139 141 127 103 126 134 135 124 129 157 144 133 178 143 135 156 134 99 126 103 116 144 108 106 110 87 83 71 74 93 66 73 89 95 109 105 76 78 22 353 226 178 171 169 185 195 171 145 156 181 199 192 186 180 175 181 191 193 194 193 195 202 208 213 215 209 213 228 236 244 250 244 178 183 201 204 214 224 217 216 224 228 225 221 223 226 226
116 132 135 122 97 124 136 133 129 135 167 183 143 136 133 152 157 128 95 38 78 116 138 124 109 94 66 73 48 209 161 141 126 113 99 104 118 134 149 76 13 349 189 172 167 180 184 168 150 162 188 202 193 181 167 157 176 197 197 193 193 199 205 207 215 221 213 208 218 227 233 235 201 156 190 194 184 202 217 216 215 220 223 224 222 223 228 228